QPF
0.01 0.00 0.01 0.02 0.02 0.04 0.05 0.04 0.03 0.02 0.02 0.03 0.03 0.02 0.02 0.03 0.04 0.04 0.04 0.03 0.03 0.03 0.04 0.03 0.03 0.02 0.02 0.02 0.01 0.01 0.01 0.01 0.01 0.01 0.01 0.01 0.01 0.01 0.01 0.01 0.01 0.01 0.01
0.00 0.00 0.01 0.02 0.02 0.03 0.03 0.03 0.03 0.03 0.03 0.04 0.03 0.02 0.01 0.02 0.04 0.04 0.04 0.02 0.02 0.02 0.03 0.03 0.03 0.03 0.02 0.02 0.01 0.01 0.01 0.01 0.01 0.01 0.01 0.01 0.01 0.01 0.01 0.01 0.01 0.01 0.01
0.00 0.00 0.01 0.02 0.02 0.03 0.03 0.03 0.02 0.03 0.04 0.03 0.02 0.02 0.02 0.03 0.03 0.05 0.03 0.02 0.02 0.03 0.04 0.03 0.02 0.02 0.02 0.01 0.01 0.01 0.01 0.01 0.01 0.00 0.01 0.01 0.01 0.01 0.01 0.02 0.01 0.01 0.01
0.00 0.00 0.01 0.02 0.02 0.03 0.03 0.03 0.02 0.03 0.04 0.03 0.03 0.03 0.03 0.03 0.04 0.04 0.04 0.02 0.03 0.04 0.04 0.04 0.03 0.02 0.01 0.01 0.01 0.01 0.01 0.00 0.00 0.01 0.01 0.01 0.01 0.02 0.02 0.02 0.02 0.02 0.02
0.00 0.01 0.01 0.01 0.01 0.02 0.02 0.03 0.03 0.03 0.03 0.03 0.03 0.03 0.03 0.04 0.04 0.04 0.04 0.03 0.03 0.03 0.03 0.04 0.03 0.02 0.01 0.01 0.00 0.00 0.00 0.00 0.00 0.00 0.01 0.01 0.02 0.02 0.01 0.01 0.01 0.02 0.02
0.00 0.01 0.02 0.01 0.01 0.02 0.02 0.03 0.02 0.03 0.03 0.03 0.03 0.03 0.03 0.04 0.04 0.03 0.03 0.03 0.02 0.02 0.02 0.03 0.03 0.02 0.02 0.01 0.00 0.00 0.00 0.00 0.00 0.01 0.01 0.01 0.01 0.01 0.01 0.01 0.01 0.01 0.02
0.01 0.02 0.02 0.03 0.02 0.02 0.03 0.03 0.03 0.03 0.03 0.03 0.03 0.03 0.04 0.04 0.04 0.04 0.04 0.03 0.02 0.02 0.02 0.02 0.02 0.02 0.03 0.02 0.01 0.01 0.01 0.00 0.00 0.01 0.01 0.01 0.01 0.01 0.02 0.02 0.02 0.02 0.02
0.01 0.01 0.02 0.04 0.04 0.03 0.03 0.03 0.04 0.03 0.03 0.03 0.04 0.04 0.04 0.03 0.03 0.05 0.06 0.05 0.04 0.03 0.03 0.03 0.03 0.03 0.03 0.02 0.02 0.01 0.01 0.00 0.00 0.01 0.01 0.01 0.01 0.01 0.02 0.02 0.02 0.02 0.02
0.01 0.01 0.01 0.03 0.04 0.04 0.03 0.04 0.04 0.03 0.03 0.03 0.04 0.04 0.03 0.03 0.02 0.04 0.05 0.05 0.04 0.03 0.03 0.03 0.02 0.03 0.03 0.02 0.02 0.02 0.01 0.00 0.00 0.01 0.01 0.01 0.01 0.01 0.02 0.02 0.02 0.02 0.02
0.01 0.01 0.01 0.02 0.04 0.04 0.03 0.03 0.03 0.04 0.04 0.04 0.04 0.03 0.02 0.02 0.02 0.02 0.03 0.04 0.04 0.04 0.03 0.03 0.03 0.03 0.03 0.02 0.02 0.01 0.01 0.00 0.00 0.00 0.00 0.00 0.01 0.01 0.02 0.02 0.02 0.03 0.02
0.01 0.01 0.01 0.03 0.05 0.05 0.04 0.03 0.03 0.04 0.04 0.04 0.04 0.04 0.03 0.02 0.02 0.02 0.02 0.03 0.04 0.04 0.04 0.05 0.05 0.04 0.04 0.03 0.02 0.01 0.01 0.00 0.01 0.01 0.02 0.01 0.01 0.02 0.03 0.02 0.02 0.02 0.02
0.01 0.01 0.02 0.02 0.02 0.04 0.04 0.03 0.03 0.04 0.05 0.04 0.04 0.04 0.03 0.02 0.02 0.02 0.02 0.02 0.03 0.04 0.05 0.05 0.06 0.07 0.06 0.03 0.02 0.02 0.01 0.00 0.01 0.01 0.02 0.01 0.01 0.02 0.02 0.02 0.02 0.02 0.02
0.01 0.01 0.01 0.02 0.02 0.03 0.05 0.04 0.04 0.04 0.04 0.05 0.04 0.04 0.03 0.03 0.03 0.02 0.02 0.02 0.03 0.06 0.07 0.07 0.09 0.08 0.06 0.02 0.02 0.02 0.01 0.01 0.01 0.00 0.01 0.01 0.01 0.02 0.03 0.03 0.02 0.02 0.02
0.01 0.01 0.01 0.01 0.02 0.03 0.04 0.05 0.04 0.04 0.04 0.04 0.04 0.04 0.03 0.03 0.03 0.03 0.03 0.03 0.03 0.04 0.05 0.06 0.08 0.08 0.06 0.04 0.03 0.02 0.01 0.01 0.01 0.01 0.01 0.01 0.01 0.02 0.04 0.04 0.03 0.02 0.02
0.01 0.02 0.01 0.01 0.02 0.02 0.03 0.05 0.05 0.04 0.03 0.04 0.04 0.03 0.03 0.03 0.03 0.03 0.03 0.03 0.04 0.04 0.04 0.04 0.05 0.06 0.05 0.06 0.05 0.03 0.02 0.01 0.01 0.01 0.01 0.00 0.01 0.02 0.03 0.05 0.04 0.04 0.03
0.01 0.02 0.02 0.02 0.02 0.02 0.02 0.04 0.07 0.05 0.04 0.05 0.04 0.03 0.03 0.03 0.03 0.04 0.04 0.04 0.04 0.04 0.04 0.04 0.04 0.04 0.05 0.05 0.06 0.05 0.04 0.02 0.01 0.01 0.01 0.02 0.02 0.01 0.02 0.04 0.05 0.04 0.03
0.01 0.01 0.02 0.02 0.01 0.01 0.01 0.02 0.05 0.06 0.05 0.05 0.04 0.03 0.03 0.04 0.04 0.03 0.03 0.02 0.03 0.05 0.06 0.04 0.05 0.06 0.05 0.05 0.05 0.06 0.05 0.03 0.02 0.02 0.01 0.01 0.01 0.01 0.03 0.06 0.05 0.03 0.02
0.02 0.01 0.01 0.01 0.02 0.02 0.02 0.02 0.03 0.05 0.06 0.06 0.05 0.04 0.03 0.03 0.03 0.04 0.03 0.02 0.02 0.04 0.06 0.06 0.05 0.06 0.06 0.05 0.05 0.05 0.05 0.04 0.02 0.02 0.01 0.00 0.00 0.01 0.04 0.05 0.03 0.02 0.01
0.02 0.02 0.01 0.01 0.01 0.01 0.02 0.02 0.03 0.04 0.07 0.08 0.08 0.06 0.04 0.04 0.04 0.04 0.04 0.04 0.03 0.03 0.04 0.06 0.06 0.06 0.06 0.06 0.06 0.05 0.05 0.04 0.03 0.02 0.01 0.01 0.01 0.01 0.02 0.03 0.02 0.01 0.01
0.01 0.01 0.01 0.01 0.01 0.01 0.01 0.01 0.01 0.02 0.04 0.06 0.08 0.09 0.07 0.04 0.04 0.05 0.04 0.04 0.05 0.04 0.04 0.05 0.05 0.06 0.06 0.07 0.07 0.06 0.05 0.05 0.04 0.03 0.02 0.02 0.01 0.01 0.01 0.01 0.01 0.00 0.00
0.01 0.01 0.01 0.00 0.00 0.00 0.00 0.00 0.00 0.01 0.01 0.02 0.03 0.05 0.06 0.06 0.05 0.05 0.03 0.03 0.03 0.03 0.03 0.04 0.05 0.06 0.05 0.07 0.09 0.08 0.09 0.08 0.06 0.05 0.04 0.03 0.02 0.03 0.02 0.01 0.00 0.00 0.00
0.00 0.01 0.01 0.01 0.00 0.00 0.00 0.00 0.00 0.01 0.01 0.01 0.02 0.02 0.03 0.04 0.05 0.06 0.05 0.03 0.03 0.02 0.02 0.03 0.05 0.06 0.06 0.05 0.07 0.07 0.08 0.08 0.06 0.04 0.03 0.02 0.02 0.03 0.02 0.02 0.01 0.00 0.00
0.00 0.00 0.00 0.00 0.00 0.00 0.00 0.00 0.00 0.01 0.01 0.01 0.01 0.01 0.01 0.02 0.03 0.05 0.06 0.05 0.04 0.04 0.03 0.01 0.03 0.05 0.06 0.06 0.05 0.05 0.04 0.04 0.04 0.03 0.02 0.01 0.01 0.02 0.02 0.02 0.01 0.01 0.00
0.00 0.00 0.00 0.00 0.00 0.00 0.00 0.00 0.00 0.01 0.01 0.01 0.01 0.01 0.01 0.01 0.02 0.03 0.04 0.04 0.04 0.04 0.05 0.04 0.03 0.03 0.06 0.07 0.07 0.04 0.03 0.03 0.04 0.04 0.02 0.01 0.01 0.01 0.01 0.01 0.02 0.02 0.02
0.00 0.00 0.00 0.00 0.00 0.00 0.00 0.00 0.00 0.00 0.01 0.01 0.01 0.01 0.01 0.01 0.01 0.01 0.02 0.03 0.04 0.04 0.03 0.04 0.04 0.04 0.06 0.07 0.08 0.07 0.04 0.02 0.03 0.03 0.03 0.02 0.02 0.01 0.01 0.02 0.02 0.02 0.01
0.00 0.00 0.00 0.00 0.00 0.00 0.00 0.00 0.00 0.00 0.01 0.01 0.01 0.01 0.01 0.01 0.01 0.01 0.02 0.02 0.04 0.06 0.06 0.04 0.04 0.04 0.06 0.09 0.11 0.10 0.08 0.05 0.03 0.04 0.03 0.02 0.02 0.02 0.01 0.01 0.01 0.01 0.01
MSLP
1012.32 1012.08 1011.79 1011.56 1011.47 1011.53 1011.71 1011.94 1012.16 1012.31 1012.36 1012.32 1012.24 1012.16 1012.12 1012.14 1012.21 1012.29 1012.34 1012.35 1012.29 1012.18 1012.06 1011.98 1011.96 1012.02 1012.15 1012.32 1012.49 1012.63 1012.72 1012.75 1012.75 1012.76 1012.81 1012.91 1013.05 1013.24 1013.42 1013.59 1013.72 1013.81 1013.87
1012.66 1012.37 1012.04 1011.80 1011.69 1011.74 1011.90 1012.11 1012.30 1012.40 1012.42 1012.35 1012.26 1012.18 1012.16 1012.20 1012.30 1012.40 1012.47 1012.47 1012.40 1012.28 1012.15 1012.05 1012.02 1012.08 1012.21 1012.39 1012.56 1012.70 1012.79 1012.83 1012.85 1012.87 1012.94 1013.05 1013.22 1013.42 1013.62 1013.80 1013.94 1014.03 1014.11
1013.01 1012.68 1012.33 1012.07 1011.96 1012.00 1012.15 1012.33 1012.49 1012.56 1012.54 1012.45 1012.35 1012.27 1012.26 1012.31 1012.41 1012.51 1012.57 1012.56 1012.48 1012.34 1012.20 1012.10 1012.07 1012.13 1012.27 1012.45 1012.64 1012.79 1012.88 1012.94 1012.96 1012.99 1013.06 1013.18 1013.35 1013.56 1013.76 1013.94 1014.09 1014.21 1014.30
1013.31 1012.97 1012.62 1012.37 1012.27 1012.31 1012.44 1012.61 1012.73 1012.77 1012.72 1012.61 1012.49 1012.40 1012.38 1012.42 1012.51 1012.59 1012.62 1012.59 1012.48 1012.34 1012.19 1012.10 1012.08 1012.16 1012.32 1012.52 1012.72 1012.89 1013.00 1013.06 1013.09 1013.13 1013.20 1013.31 1013.47 1013.66 1013.85 1014.03 1014.19 1014.32 1014.46
1013.53 1013.20 1012.88 1012.66 1012.58 1012.64 1012.77 1012.91 1013.00 1013.01 1012.93 1012.80 1012.66 1012.55 1012.50 1012.51 1012.56 1012.60 1012.60 1012.54 1012.41 1012.26 1012.13 1012.05 1012.06 1012.17 1012.36 1012.59 1012.82 1013.00 1013.13 1013.21 1013.25 1013.28 1013.34 1013.44 1013.58 1013.74 1013.92 1014.09 1014.25 1014.40 1014.56
1013.65 1013.36 1013.10 1012.94 1012.90 1012.98 1013.11 1013.24 1013.30 1013.28 1013.17 1013.00 1012.83 1012.69 1012.61 1012.58 1012.57 1012.56 1012.51 1012.41 1012.27 1012.12 1012.00 1011.96 1012.01 1012.16 1012.38 1012.64 1012.89 1013.10 1013.25 1013.34 1013.40 1013.44 1013.50 1013.58 1013.69 1013.83 1013.98 1014.13 1014.28 1014.45 1014.64
1013.67 1013.46 1013.28 1013.19 1013.22 1013.33 1013.47 1013.58 1013.61 1013.55 1013.40 1013.21 1013.01 1012.83 1012.70 1012.62 1012.56 1012.49 1012.38 1012.25 1012.09 1011.95 1011.85 1011.84 1011.93 1012.11 1012.37 1012.65 1012.92 1013.15 1013.32 1013.43 1013.51 1013.57 1013.63 1013.71 1013.81 1013.92 1014.04 1014.17 1014.31 1014.48 1014.70
1013.62 1013.51 1013.44 1013.45 1013.54 1013.69 1013.83 1013.92 1013.92 1013.83 1013.65 1013.43 1013.20 1013.00 1012.83 1012.69 1012.56 1012.42 1012.27 1012.09 1011.91 1011.77 1011.69 1011.71 1011.82 1012.03 1012.30 1012.59 1012.87 1013.11 1013.29 1013.43 1013.54 1013.62 1013.71 1013.80 1013.90 1014.00 1014.10 1014.22 1014.35 1014.52 1014.74
1013.55 1013.56 1013.61 1013.72 1013.87 1014.04 1014.18 1014.25 1014.22 1014.10 1013.91 1013.68 1013.44 1013.21 1013.00 1012.82 1012.63 1012.43 1012.22 1011.99 1011.79 1011.63 1011.56 1011.58 1011.70 1011.91 1012.17 1012.45 1012.71 1012.95 1013.14 1013.30 1013.44 1013.57 1013.70 1013.82 1013.95 1014.06 1014.16 1014.27 1014.39 1014.55 1014.78
1013.51 1013.64 1013.81 1014.01 1014.22 1014.40 1014.52 1014.56 1014.51 1014.38 1014.18 1013.95 1013.72 1013.49 1013.27 1013.04 1012.80 1012.54 1012.27 1011.99 1011.75 1011.57 1011.47 1011.48 1011.58 1011.76 1011.99 1012.23 1012.46 1012.67 1012.86 1013.04 1013.21 1013.39 1013.57 1013.76 1013.92 1014.07 1014.19 1014.30 1014.42 1014.58 1014.80
1013.51 1013.78 1014.05 1014.32 1014.56 1014.74 1014.83 1014.84 1014.77 1014.63 1014.45 1014.25 1014.05 1013.84 1013.62 1013.38 1013.10 1012.78 1012.44 1012.11 1011.82 1011.59 1011.46 1011.43 1011.49 1011.62 1011.78 1011.96 1012.14 1012.31 1012.47 1012.66 1012.86 1013.09 1013.34 1013.59 1013.82 1014.01 1014.17 1014.30 1014.42 1014.58 1014.80
1013.58 1013.96 1014.33 1014.64 1014.89 1015.04 1015.10 1015.07 1014.98 1014.85 1014.70 1014.55 1014.40 1014.24 1014.04 1013.79 1013.49 1013.13 1012.74 1012.35 1012.00 1011.73 1011.55 1011.46 1011.46 1011.52 1011.61 1011.70 1011.80 1011.91 1012.04 1012.21 1012.43 1012.70 1013.01 1013.32 1013.62 1013.88 1014.08 1014.24 1014.38 1014.55 1014.76
1013.69 1014.17 1014.60 1014.94 1015.17 1015.28 1015.29 1015.23 1015.12 1015.01 1014.91 1014.82 1014.74 1014.63 1014.48 1014.25 1013.94 1013.55 1013.12 1012.68 1012.29 1011.96 1011.73 1011.59 1011.52 1011.50 1011.50 1011.50 1011.52 1011.55 1011.62 1011.76 1011.97 1012.27 1012.62 1012.99 1013.35 1013.66 1013.92 1014.12 1014.29 1014.46 1014.67
1013.82 1014.38 1014.84 1015.18 1015.37 1015.43 1015.39 1015.29 1015.18 1015.09 1015.04 1015.02 1015.01 1014.98 1014.88 1014.68 1014.38 1013.99 1013.54 1013.07 1012.65 1012.29 1012.01 1011.82 1011.69 1011.59 1011.50 1011.42 1011.33 1011.28 1011.28 1011.37 1011.55 1011.84 1012.21 1012.62 1013.02 1013.38 1013.69 1013.93 1014.13 1014.32 1014.54
1013.93 1014.53 1015.01 1015.32 1015.47 1015.48 1015.39 1015.27 1015.15 1015.08 1015.08 1015.13 1015.19 1015.22 1015.17 1015.02 1014.75 1014.37 1013.93 1013.47 1013.03 1012.66 1012.36 1012.14 1011.96 1011.79 1011.63 1011.46 1011.28 1011.14 1011.06 1011.08 1011.21 1011.47 1011.82 1012.24 1012.66 1013.06 1013.40 1013.68 1013.91 1014.12 1014.34
1013.99 1014.61 1015.07 1015.35 1015.46 1015.43 1015.31 1015.16 1015.04 1014.99 1015.03 1015.12 1015.23 1015.32 1015.32 1015.21 1014.98 1014.64 1014.23 1013.80 1013.39 1013.03 1012.74 1012.50 1012.30 1012.09 1011.87 1011.62 1011.36 1011.14 1010.97 1010.91 1010.97 1011.17 1011.49 1011.88 1012.30 1012.70 1013.06 1013.37 1013.62 1013.85 1014.08
1013.98 1014.58 1015.02 1015.27 1015.34 1015.29 1015.15 1015.00 1014.89 1014.85 1014.90 1015.02 1015.15 1015.26 1015.29 1015.22 1015.03 1014.74 1014.39 1014.01 1013.66 1013.35 1013.09 1012.86 1012.65 1012.42 1012.15 1011.85 1011.53 1011.23 1010.98 1010.84 1010.82 1010.95 1011.20 1011.54 1011.93 1012.32 1012.69 1013.00 1013.28 1013.52 1013.77
1013.90 1014.45 1014.85 1015.08 1015.14 1015.09 1014.96 1014.82 1014.72 1014.69 1014.74 1014.84 1014.97 1015.07 1015.10 1015.05 1014.89 1014.66 1014.38 1014.08 1013.80 1013.56 1013.35 1013.15 1012.95 1012.72 1012.44 1012.10 1011.74 1011.38 1011.06 1010.85 1010.75 1010.80 1010.97 1011.24 1011.58 1011.93 1012.28 1012.59 1012.88 1013.13 1013.39
1013.74 1014.23 1014.59 1014.81 1014.88 1014.85 1014.76 1014.65 1014.57 1014.54 1014.56 1014.63 1014.71 1014.77 1014.78 1014.72 1014.59 1014.41 1014.20 1013.98 1013.79 1013.62 1013.47 1013.33 1013.15 1012.93 1012.65 1012.30 1011.91 1011.52 1011.17 1010.89 1010.73 1010.70 1010.79 1010.98 1011.24 1011.54 1011.85 1012.15 1012.43 1012.70 1012.96
1013.51 1013.93 1014.26 1014.47 1014.58 1014.61 1014.58 1014.52 1014.46 1014.43 1014.42 1014.42 1014.43 1014.42 1014.37 1014.28 1014.16 1014.01 1013.87 1013.73 1013.62 1013.53 1013.45 1013.35 1013.22 1013.02 1012.75 1012.41 1012.03 1011.63 1011.26 1010.95 1010.74 1010.63 1010.64 1010.75 1010.93 1011.15 1011.41 1011.67 1011.94 1012.21 1012.48
1013.24 1013.59 1013.88 1014.11 1014.27 1014.37 1014.41 1014.42 1014.40 1014.36 1014.31 1014.24 1014.16 1014.05 1013.93 1013.80 1013.66 1013.53 1013.43 1013.36 1013.32 1013.30 1013.28 1013.23 1013.13 1012.97 1012.73 1012.42 1012.06 1011.69 1011.33 1011.01 1010.77 1010.61 1010.54 1010.56 1010.64 1010.78 1010.97 1011.18 1011.42 1011.68 1011.97
1012.94 1013.21 1013.48 1013.73 1013.94 1014.13 1014.26 1014.34 1014.37 1014.33 1014.24 1014.10 1013.93 1013.73 1013.52 1013.32 1013.16 1013.03 1012.96 1012.93 1012.94 1012.97 1012.99 1012.98 1012.92 1012.80 1012.60 1012.34 1012.03 1011.71 1011.38 1011.08 1010.82 1010.62 1010.49 1010.41 1010.40 1010.44 1010.54 1010.69 1010.89 1011.13 1011.42
1012.62 1012.83 1013.07 1013.34 1013.61 1013.87 1014.09 1014.25 1014.33 1014.31 1014.20 1014.00 1013.74 1013.46 1013.17 1012.91 1012.70 1012.57 1012.50 1012.50 1012.54 1012.59 1012.64 1012.66 1012.63 1012.54 1012.39 1012.19 1011.95 1011.69 1011.42 1011.16 1010.90 1010.68 1010.48 1010.32 1010.20 1010.14 1010.14 1010.21 1010.36 1010.57 1010.85
1012.31 1012.46 1012.67 1012.94 1013.26 1013.59 1013.89 1014.12 1014.26 1014.26 1014.15 1013.92 1013.61 1013.25 1012.90 1012.59 1012.34 1012.18 1012.10 1012.10 1012.14 1012.21 1012.26 1012.30 1012.29 1012.23 1012.13 1012.00 1011.84 1011.65 1011.45 1011.23 1011.00 1010.75 1010.50 1010.26 1010.04 1009.87 1009.76 1009.75 1009.83 1010.01 1010.28
1012.00 1012.10 1012.28 1012.55 1012.89 1013.26 1013.62 1013.92 1014.11 1014.16 1014.06 1013.82 1013.49 1013.10 1012.71 1012.36 1012.08 1011.89 1011.79 1011.77 1011.79 1011.84 1011.89 1011.92 1011.92 1011.89 1011.84 1011.77 1011.68 1011.57 1011.44 1011.28 1011.07 1010.81 1010.52 1010.20 1009.89 1009.61 1009.41 1009.30 1009.32 1009.46 1009.71
1011.71 1011.77 1011.92 1012.17 1012.51 1012.90 1013.29 1013.63 1013.87 1013.96 1013.90 1013.69 1013.36 1012.97 1012.57 1012.19 1011.89 1011.68 1011.55 1011.50 1011.49 1011.50 1011.52 1011.53 1011.53 1011.51 1011.50 1011.48 1011.45 1011.42 1011.35 1011.24 1011.06 1010.80 1010.48 1010.10 1009.72 1009.35 1009.06 1008.87 1008.82 1008.91 1009.15
Thickness
5721 5722 5722 5723 5724 5724 5724 5724 5723 5723 5723 5723 5723 5723 5722 5722 5722 5722 5722 5722 5722 5722 5723 5723 5722 5722 5722 5722 5721 5721 5721 5721 5721 5720 5720 5720 5719 5719 5718 5718 5717 5717 5716
5717 5717 5717 5718 5718 5719 5718 5718 5718 5718 5718 5718 5718 5718 5718 5718 5718 5718 5718 5718 5718 5718 5719 5719 5718 5718 5718 5718 5717 5717 5717 5717 5717 5717 5716 5716 5716 5715 5715 5714 5713 5713 5712
5713 5712 5712 5712 5712 5713 5713 5713 5713 5713 5713 5713 5713 5714 5714 5714 5714 5714 5714 5714 5714 5714 5715 5714 5714 5714 5714 5713 5713 5713 5713 5713 5713 5713 5713 5712 5712 5711 5711 5710 5710 5709 5709
5708 5707 5706 5706 5706 5707 5707 5707 5707 5707 5707 5708 5708 5709 5709 5709 5709 5709 5709 5709 5709 5710 5710 5710 5710 5709 5709 5709 5709 5709 5709 5709 5709 5709 5709 5709 5708 5707 5707 5706 5706 5705 5705
5702 5701 5700 5700 5700 5700 5701 5701 5701 5701 5701 5702 5702 5703 5704 5704 5704 5705 5705 5705 5705 5705 5705 5705 5705 5705 5704 5704 5704 5704 5704 5704 5705 5705 5705 5705 5704 5704 5703 5702 5701 5701 5701
5695 5694 5693 5693 5693 5694 5694 5695 5695 5695 5695 5695 5696 5697 5698 5699 5699 5699 5700 5700 5700 5700 5700 5700 5700 5700 5700 5700 5699 5699 5699 5700 5701 5701 5701 5701 5700 5699 5699 5698 5697 5697 5696
5687 5687 5686 5686 5686 5687 5687 5688 5688 5689 5689 5689 5690 5691 5692 5693 5694 5694 5695 5695 5695 5695 5695 5695 5695 5695 5695 5695 5694 5695 5695 5695 5696 5696 5696 5695 5695 5695 5694 5693 5693 5692 5692
5679 5679 5679 5679 5679 5680 5680 5681 5682 5682 5683 5683 5683 5684 5686 5687 5688 5689 5689 5690 5690 5691 5691 5691 5690 5690 5690 5690 5689 5689 5689 5690 5690 5691 5691 5690 5690 5689 5689 5688 5687 5687 5687
5672 5672 5671 5671 5672 5672 5673 5674 5674 5675 5676 5677 5677 5678 5679 5680 5682 5683 5683 5684 5685 5685 5685 5685 5685 5685 5685 5684 5684 5683 5684 5684 5685 5685 5685 5684 5684 5683 5683 5682 5682 5681 5681
5663 5663 5663 5664 5664 5664 5665 5666 5667 5668 5670 5671 5671 5671 5673 5674 5675 5676 5677 5678 5679 5679 5679 5680 5680 5680 5679 5678 5678 5678 5678 5678 5679 5679 5679 5678 5678 5677 5677 5676 5675 5675 5675
5654 5654 5655 5656 5656 5657 5658 5659 5660 5662 5663 5663 5664 5665 5666 5668 5669 5670 5671 5672 5672 5673 5673 5674 5674 5673 5673 5672 5672 5672 5672 5672 5672 5673 5672 5672 5671 5671 5670 5670 5669 5668 5668
5644 5645 5647 5647 5648 5649 5650 5651 5653 5654 5656 5657 5657 5658 5659 5661 5662 5663 5664 5665 5666 5666 5667 5667 5667 5667 5667 5666 5665 5665 5665 5665 5666 5666 5665 5665 5665 5664 5664 5663 5662 5661 5661
5637 5637 5638 5639 5640 5641 5642 5644 5645 5647 5648 5649 5650 5651 5653 5654 5655 5656 5658 5658 5659 5659 5660 5660 5660 5661 5661 5660 5660 5659 5659 5659 5659 5659 5658 5658 5658 5657 5657 5656 5655 5654 5654
5629 5629 5630 5631 5632 5633 5634 5636 5637 5638 5640 5641 5642 5643 5645 5647 5648 5649 5650 5651 5652 5652 5653 5653 5654 5655 5654 5654 5654 5653 5653 5653 5653 5652 5651 5650 5650 5650 5649 5648 5648 5647 5646
5621 5621 5622 5623 5623 5625 5626 5627 5629 5630 5631 5633 5634 5635 5637 5638 5640 5641 5643 5644 5644 5645 5646 5646 5647 5647 5648 5648 5647 5647 5647 5647 5646 5645 5644 5643 5643 5642 5641 5641 5640 5639 5638
5614 5613 5614 5615 5616 5616 5618 5619 5620 5621 5623 5624 5625 5627 5628 5630 5631 5633 5635 5636 5637 5638 5638 5639 5640 5640 5640 5640 5640 5640 5640 5639 5639 5638 5637 5636 5635 5634 5634 5633 5632 5631 5630
5606 5606 5606 5607 5608 5608 5609 5611 5612 5613 5614 5615 5617 5618 5620 5621 5623 5625 5626 5628 5629 5630 5631 5632 5632 5632 5633 5633 5632 5632 5633 5632 5631 5630 5629 5628 5627 5626 5625 5624 5623 5623 5622
5599 5598 5598 5599 5599 5600 5601 5602 5604 5605 5606 5607 5608 5610 5611 5613 5615 5616 5618 5619 5621 5622 5623 5624 5624 5624 5624 5624 5624 5624 5624 5624 5623 5622 5622 5620 5619 5617 5616 5615 5614 5613 5613
5592 5591 5590 5591 5591 5591 5592 5594 5596 5597 5598 5599 5600 5601 5603 5604 5606 5607 5609 5611 5612 5613 5614 5615 5615 5615 5615 5615 5615 5615 5615 5615 5615 5614 5613 5612 5611 5609 5607 5606 5604 5603 5602
5584 5583 5582 5582 5582 5583 5584 5585 5586 5588 5589 5591 5592 5594 5595 5596 5597 5599 5600 5601 5602 5603 5604 5605 5606 5606 5606 5606 5606 5606 5606 5606 5606 5605 5604 5603 5601 5600 5598 5596 5595 5593 5592
5574 5573 5574 5574 5574 5574 5575 5575 5577 5578 5580 5582 5584 5586 5587 5588 5589 5589 5590 5591 5592 5593 5594 5595 5596 5596 5595 5595 5594 5594 5595 5596 5597 5595 5594 5592 5591 5590 5588 5587 5585 5583 5582
5565 5564 5564 5565 5565 5566 5566 5567 5568 5569 5571 5573 5574 5576 5578 5579 5580 5581 5581 5581 5582 5583 5584 5585 5585 5585 5585 5584 5582 5581 5581 5583 5585 5585 5583 5582 5580 5579 5578 5576 5574 5572 5570
5555 5555 5556 5556 5557 5557 5558 5558 5559 5559 5561 5562 5564 5567 5568 5570 5571 5572 5572 5572 5573 5573 5573 5574 5574 5574 5573 5573 5572 5570 5569 5571 5570 5573 5573 5572 5569 5568 5567 5565 5564 5561 5559
5546 5546 5546 5547 5547 5548 5549 5549 5549 5550 5551 5553 5555 5557 5559 5561 5561 5562 5562 5562 5562 5563 5563 5563 5563 5563 5563 5562 5562 5561 5560 5560 5557 5559 5561 5560 5559 5557 5556 5555 5553 5551 5549
5536 5536 5537 5538 5538 5539 5539 5540 5540 5540 5541 5543 5545 5547 5549 5551 5551 5552 5552 5552 5552 5552 5553 5552 5552 5553 5553 5552 5551 5550 5549 5548 5548 5547 5548 5548 5547 5547 5546 5544 5543 5541 5539
5526 5525 5526 5528 5528 5529 5529 5530 5530 5531 5531 5532 5534 5535 5537 5539 5540 5541 5542 5542 5542 5542 5542 5542 5542 5542 5542 5541 5541 5540 5539 5538 5537 5536 5535 5536 5536 5536 5536 5534 5532 5531 5529